22:16
Airports
History
Links
Donate
Help keep this website running!
PayPal
Bitcoin
Information on this page is community maintained and may be outdated or inaccurate and is intended for reference only or PC simulator navigating.
Always use approved charts for navigating.
ROTM
FUTENMA MCAS
FUTENMA MCAS (ROTM)
Ginowan-shi, Okinawa Prefecture, Japan (901)
(C)6
Lat/Lng:26° 16' 26.88" N / 127° 45' 22.56" E
26.274132 / 127.756267
Elevation:247'ft 75mMSL
ID / ICAO:ROTM
Runways:1
Longest:(06-24) 2,800.3m 9,187ft Asphalt
Airport use:Military,
Controlled:Yes
Distance To
Airport ID:
Airport Radio Frequencies
Ground: 122.8
Tower: 123.6
Nearby VORs <50NM
Nearby NDBs
METARUpdated 06-26-17 21:58 GMT
Altimeter: 29.81
Visibility: 6.2 statute miles
Wind: 9 knots (190°)
Temp: 27°c 81°f
Humidity: 88.8%

METAR: ROTM 262158Z 19009KT 9999 SCT010 BKN220 27/25 A2981 RMK SLP079 STNPR29510 T2 T02720250

(Powered by phpweather)
Runway 06 / 24
Dimensions:2800.3 x 45.7m 9187' x 150'ft
Surface:Asphalt
Edge Lights:High intensity
Runway 06 [A]Runway 24 [B]
Heading:054°TH 234°TH
Lat:
Lng:
26° 16' 0.78"N
127° 44' 41.24"E
26° 16' 52.97"N
127° 46' 3.88"E
ALS:SALS
TDZ:Yes, lighted
User Notes and Comments
Google Map
Nearby Airports
(C) KADENA AB 5.7 NM
RODN (WX) N
(C) NAHA 8.7 NM
ROAH (WX) SW 231°
(C) Kerama 29.6 NM
ROKR WSW 255°
(C) IE JIMA 31.0 NM
RORE N
(C) IE SHIMA AUX AB 31.3 NM
RODE N
(C) Aguni 38.5 NM
RORA NW 304°
(C) KUMEJIMA 64.9 NM
ROKJ (WX) W 275°
VFR Chart
Flight Planning at SkyVector.com